FW8346 Weather Reports


Display with metric or nautical units.
time (UTC)temp
F
wind
direction
speed
MPH
gust
MPH
rain 1hr
in
rain 24hr
in
rain mn
in
humidity
%
barometer
mb
20220704033547 67 124 0.0 0.0 0.00 0.35 0.35 95 1015.2
20220704033046 67 126 0.0 0.0 0.00 0.35 0.35 95 1015.1
20220704032546 67 93 0.0 0.0 0.00 0.35 0.35 95 1015.1
20220704032045 67 93 0.0 0.0 0.00 0.35 0.35 94 1015.1
20220704031546 67 126 0.0 0.0 0.00 0.35 0.35 94 1015.2
20220704031045 67 126 0.0 0.0 0.00 0.35 0.35 94 1015.1
20220704030546 67 126 0.0 0.0 0.00 0.35 0.35 94 1015.1
20220704030045 67 105 0.0 0.0 0.00 0.35 0.35 94 1015.2
20220704025547 67 98 0.0 0.0 0.00 0.35 0.35 94 1015.2
20220704025042 68 98 0.0 2.0 0.00 0.35 0.35 94 1015.2
20220704024540 68 114 0.0 2.0 0.00 0.35 0.35 94 1015.3
20220704024046 68 124 0.0 1.0 0.00 0.35 0.35 94 1015.3
20220704023541 68 88 0.0 0.0 0.00 0.35 0.35 93 1015.2
20220704023042 68 96 0.0 3.0 0.00 0.35 0.35 93 1015.3
20220704022541 68 96 0.0 3.0 0.00 0.35 0.35 93 1015.2
20220704022042 68 95 0.0 3.0 0.00 0.35 0.35 93 1015.0
20220704021540 69 110 0.0 1.0 0.00 0.35 0.35 93 1015.1
20220704021042 69 165 0.0 1.0 0.00 0.35 0.35 93 1015.0
20220704020538 69 105 0.0 2.0 0.00 0.35 0.35 93 1015.1
20220704020037 69 101 0.0 2.0 0.00 0.35 0.35 93 1015.2
20220704015537 69 89 0.0 2.0 0.00 0.35 0.35 93 1015.1
20220704015038 69 89 0.0 2.0 0.00 0.35 0.35 93 1015.1
20220704014536 69 82 0.0 2.0 0.00 0.35 0.35 93 1015.1
20220704014036 69 90 0.0 2.0 0.00 0.35 0.35 93 1015.3
20220704013540 69 89 0.0 2.0 0.00 0.35 0.35 92 1015.5
20220704013037 70 77 0.0 1.0 0.00 0.35 0.35 92 1015.6
20220704012538 70 89 0.0 1.0 0.00 0.35 0.35 92 1015.7
20220704012033 70 103 0.0 2.0 0.00 0.35 0.35 92 1015.8
20220704011532 70 112 0.0 2.0 0.00 0.35 0.35 92 1015.7
20220704011035 70 94 0.0 1.0 0.00 0.35 0.35 92 1016.1
20220704010536 70 92 0.0 1.0 0.00 0.35 0.35 92 1016.1
20220704010034 70 117 0.0 2.0 0.00 0.35 0.35 92 1016.1
20220704005534 70 98 0.0 3.0 0.00 0.35 0.35 92 1016.1
20220704005035 70 126 0.0 3.0 0.00 0.35 0.35 92 1016.1
20220704004533 70 95 0.0 1.0 0.00 0.35 0.35 92 1016.1
20220704004032 70 99 0.0 1.0 0.00 0.35 0.35 91 1016.2
20220704003528 70 122 0.0 4.0 0.00 0.35 0.35 91 1016.3
20220704003029 70 103 0.0 4.0 0.00 0.35 0.35 91 1016.3
20220704002523 70 120 0.0 2.0 0.00 0.35 0.35 91 1016.2
20220704002018 70 162 0.0 1.0 0.00 0.35 0.35 90 1016.3
20220704001511 70 111 0.0 1.0 0.00 0.35 0.35 90 1016.5
20220704001005 70 113 0.0 0.0 0.00 0.35 0.35 90 1016.6
20220704000501 70 94 0.0 1.0 0.00 0.35 0.35 90 1016.6
20220703235953 71 94 0.0 1.0 0.00 0.35 0.35 90 1016.6
20220703235449 71 92 0.0 1.0 0.00 0.35 0.35 90 1016.6
20220703234944 71 84 0.0 1.0 0.00 0.35 0.35 90 1016.7
20220703234435 71 91 0.0 1.0 0.00 0.35 0.35 90 1016.8
20220703233929 71 92 0.0 1.0 0.00 0.35 0.35 90 1016.9
20220703233423 71 102 0.0 1.0 0.00 0.35 0.35 89 1016.8
20220703232919 71 90 0.0 4.0 0.00 0.35 0.35 90 1016.8
20220703232420 71 89 0.0 4.0 0.00 0.35 0.35 90 1016.8
20220703231920 71 84 0.0 1.0 0.00 0.35 0.35 91 1016.7
20220703231419 71 98 0.0 1.0 0.00 0.35 0.35 91 1016.9
20220703230918 70 81 0.0 1.0 0.00 0.35 0.35 90 1017.0
20220703230416 70 84 0.0 1.0 0.00 0.35 0.35 90 1017.2
20220703225914 70 101 0.0 1.0 0.00 0.35 0.35 91 1017.1
20220703225414 70 98 0.0 1.0 0.00 0.35 0.35 90 1017.2
20220703224913 70 89 0.0 1.0 0.00 0.35 0.35 90 1017.3
20220703224411 70 118 0.0 1.0 0.00 0.35 0.35 90 1017.2
20220703223910 70 101 0.0 1.0 0.00 0.35 0.35 91 1017.4
20220703223411 70 92 0.0 1.0 0.00 0.35 0.35 91 1017.2
20220703222911 70 92 0.0 1.0 0.00 0.35 0.35 91 1017.2
20220703222411 70 103 0.0 1.0 0.00 0.35 0.35 92 1017.3
20220703221908 70 94 0.0 1.0 0.00 0.35 0.35 93 1017.3
20220703221407 69 121 0.0 1.0 0.01 0.35 0.35 92 1017.3
20220703220908 69 146 0.0 0.0 0.01 0.35 0.35 91 1017.2
20220703220404 69 146 0.0 1.0 0.02 0.35 0.35 91 1017.3
20220703215907 69 97 0.0 1.0 0.02 0.35 0.35 90 1017.3
20220703215401 69 94 0.0 1.0 0.04 0.35 0.35 91 1017.3
20220703214855 69 94 0.0 1.0 0.05 0.35 0.35 91 1017.3
20220703214350 69 89 0.0 1.0 0.05 0.35 0.35 91 1017.4
20220703213842 69 91 0.0 1.0 0.05 0.35 0.35 92 1017.5
20220703213336 69 101 0.0 1.0 0.05 0.35 0.35 92 1017.4
20220703212830 69 104 0.0 0.0 0.05 0.35 0.35 92 1017.7
20220703212326 69 104 0.0 0.0 0.05 0.35 0.35 91 1017.8
20220703211818 69 104 0.0 1.0 0.05 0.35 0.35 91 1017.7
20220703211313 69 104 0.0 1.0 0.04 0.34 0.34 90 1017.7
20220703210807 69 110 0.0 0.0 0.04 0.34 0.34 90 1017.7
20220703210301 69 110 0.0 0.0 0.03 0.33 0.33 90 1017.8
20220703205754 70 222 0.0 0.0 0.02 0.32 0.33 90 1018.0
20220703205249 70 225 0.0 0.0 0.01 0.31 0.31 90 1018.0
20220703204743 70 225 0.0 1.0 0.00 0.30 0.30 90 1018.0
20220703204237 71 225 0.0 2.0 0.00 0.30 0.30 90 1017.8
20220703203730 71 99 0.0 2.0 0.00 0.30 0.30 91 1017.9
20220703203225 71 217 0.0 2.0 0.00 0.30 0.30 92 1018.0
20220703202718 71 165 0.0 2.0 0.00 0.30 0.30 94 1018.1
20220703202212 70 130 0.0 1.0 0.00 0.30 0.30 94 1018.2
20220703201706 70 95 0.0 1.0 0.01 0.30 0.30 93 1018.3
20220703201200 69 64 0.0 1.0 0.01 0.30 0.30 93 1018.4
20220703200655 69 108 0.0 0.0 0.02 0.30 0.30 93 1018.2
20220703200150 69 200 0.0 1.0 0.03 0.30 0.30 93 1018.2
20220703195642 69 302 0.0 1.0 0.05 0.30 0.30 93 1018.3
20220703195136 69 264 0.0 0.0 0.07 0.30 0.30 93 1018.3
20220703194630 69 99 0.0 1.0 0.07 0.30 0.30 94 1018.2
20220703194124 69 98 0.0 1.0 0.08 0.30 0.30 93 1018.2
20220703193619 69 160 0.0 2.0 0.09 0.30 0.30 93 1018.2
20220703193113 69 160 0.0 2.0 0.11 0.30 0.30 93 1018.3
20220703192606 69 166 0.0 0.0 0.12 0.30 0.30 93 1018.4
20220703192100 69 258 0.0 0.0 0.15 0.30 0.30 92 1018.3
20220703191555 69 258 0.0 0.0 0.19 0.29 0.29 92 1018.4
20220703191049 69 258 0.0 1.0 0.21 0.29 0.29 92 1018.3
20220703190543 69 258 0.0 1.0 0.21 0.28 0.28 92 1018.5
20220703190046 69 260 0.0 1.0 0.21 0.26 0.27 92 1018.4
20220703185533 69 260 0.0 1.0 0.20 0.24 0.24 92 1018.3
20220703185024 69 260 0.0 0.0 0.20 0.23 0.23 92 1018.3
20220703184519 69 260 0.0 0.0 0.20 0.22 0.22 92 1018.3
20220703184013 69 260 0.0 0.0 0.21 0.22 0.22 92 1018.2
20220703183507 69 260 0.0 0.0 0.19 0.20 0.20 92 1018.3
20220703183001 69 260 0.0 1.0 0.19 0.19 0.19 91 1018.4
20220703182455 69 260 0.0 1.0 0.18 0.18 0.18 90 1018.4
20220703181948 69 260 0.0 1.0 0.12 0.12 0.13 90 1018.6
20220703181443 69 260 0.0 1.0 0.09 0.09 0.10 89 1018.6
20220703180937 69 234 0.0 1.0 0.08 0.08 0.08 88 1018.4
20220703180431 70 221 0.0 0.0 0.06 0.06 0.07 87 1018.3
20220703175925 70 221 0.0 0.0 0.05 0.05 0.05 86 1018.3
20220703175420 70 222 0.0 0.0 0.04 0.04 0.04 84 1018.2
20220703174918 71 222 0.0 1.0 0.03 0.03 0.03 83 1018.2
20220703174418 71 222 0.0 1.0 0.02 0.02 0.02 82 1018.2
20220703173917 72 222 0.0 1.0 0.01 0.01 0.01 81 1018.2
20220703173415 72 222 0.0 1.0 0.01 0.01 0.01 79 1018.2
20220703172912 72 222 0.0 2.0 0.00 0.00 0.00 77 1018.3
20220703172411 73 150 0.0 2.0 0.00 0.00 0.00 76 1018.2
20220703171909 73 148 0.0 3.0 0.00 0.00 0.00 76 1018.2
20220703171408 73 102 1.0 3.0 0.00 0.00 0.00 76 1018.3
20220703170906 73 166 1.0 3.0 0.00 0.00 0.00 75 1018.2
20220703170405 73 156 1.0 5.0 0.00 0.00 0.00 75 1018.2
20220703165905 73 167 1.0 5.0 0.00 0.00 0.00 75 1018.2
20220703165402 73 181 0.0 3.0 0.00 0.00 0.00 76 1018.2
20220703164903 72 154 0.0 3.0 0.00 0.00 0.00 76 1018.2
20220703164358 72 174 0.0 4.0 0.00 0.00 0.00 75 1018.2
20220703163859 73 140 1.0 4.0 0.00 0.00 0.00 74 1018.2
20220703163353 73 145 1.0 4.0 0.00 0.00 0.00 74 1018.4
20220703162851 73 119 1.0 6.0 0.00 0.00 0.00 73 1018.4
20220703162351 73 89 1.0 6.0 0.00 0.00 0.00 72 1018.5
20220703162124 74 97 0.0 3.0 0.00 0.00 0.00 73 1018.5
20220703161353 73 121 1.0 3.0 0.00 0.00 0.00 75 1018.6
20220703160849 73 131 1.0 4.0 0.00 0.00 0.00 75 1018.6
20220703160350 72 103 1.0 4.0 0.00 0.00 0.00 77 1018.7
20220703155850 72 87 1.0 4.0 0.00 0.00 0.00 77 1018.6
20220703155350 72 153 0.0 4.0 0.00 0.00 0.00 76 1018.5
20220703154848 71 158 1.0 2.0 0.00 0.00 0.00 79 1018.6
20220703154348 71 110 1.0 2.0 0.00 0.00 0.00 79 1018.7
20220703153846 71 119 1.0 2.0 0.00 0.00 0.00 79 1018.7
20220703153347 71 141 0.0 2.0 0.00 0.00 0.00 78 1018.7
20220703152845 71 106 1.0 4.0 0.00 0.00 0.00 79 1018.7
20220703152349 70 121 1.0 4.0 0.00 0.00 0.00 80 1018.6
20220703151845 70 97 0.0 3.0 0.00 0.00 0.00 82 1018.6
20220703151347 70 133 0.0 3.0 0.00 0.00 0.00 82 1018.6
20220703150846 69 149 0.0 3.0 0.00 0.00 0.00 83 1018.6
20220703150346 69 75 0.0 3.0 0.00 0.00 0.00 84 1018.5
20220703145842 69 98 0.0 2.0 0.00 0.00 0.00 86 1018.6
20220703145343 68 102 0.0 2.0 0.00 0.00 0.00 87 1018.5
20220703144842 68 81 0.0 2.0 0.00 0.00 0.00 87 1018.6
20220703144343 68 115 0.0 3.0 0.00 0.00 0.00 88 1018.8
20220703143843 67 79 0.0 3.0 0.00 0.00 0.00 88 1019.0
20220703143342 67 75 0.0 3.0 0.00 0.00 0.00 89 1018.8
20220703142847 67 115 0.0 1.0 0.00 0.00 0.00 90 1019.0
20220703142339 66 84 0.0 1.0 0.00 0.00 0.00 90 1019.0
20220703141838 66 79 0.0 1.0 0.00 0.00 0.00 90 1019.0
20220703141339 66 84 0.0 1.0 0.00 0.00 0.00 91 1018.8
20220703140838 65 84 0.0 1.0 0.00 0.00 0.00 91 1018.8
20220703140337 65 95 0.0 1.0 0.00 0.00 0.00 92 1019.1
20220703135839 65 92 0.0 1.0 0.00 0.00 0.00 91 1019.1
20220703135340 65 92 0.0 1.0 0.00 0.00 0.00 91 1019.0
20220703134839 65 85 0.0 1.0 0.00 0.00 0.00 91 1019.0
20220703134341 65 86 0.0 1.0 0.00 0.00 0.00 91 1019.0
20220703133837 64 83 0.0 1.0 0.00 0.00 0.00 91 1019.1
20220703133339 64 87 0.0 1.0 0.00 0.00 0.00 91 1019.0
20220703132838 64 81 0.0 1.0 0.00 0.00 0.00 91 1019.1
20220703132339 64 90 0.0 1.0 0.00 0.00 0.00 91 1019.1
20220703131839 64 88 0.0 1.0 0.00 0.00 0.00 92 1019.0
20220703131341 64 84 0.0 1.0 0.00 0.00 0.00 92 1019.0
20220703130837 63 90 0.0 1.0 0.00 0.00 0.00 92 1019.0
20220703130337 63 82 0.0 1.0 0.00 0.00 0.00 93 1019.0
20220703125837 63 86 0.0 0.0 0.00 0.00 0.00 94 1018.8
20220703125335 62 85 0.0 1.0 0.00 0.00 0.00 94 1019.0
20220703124832 61 73 0.0 1.0 0.00 0.00 0.00 95 1019.0
20220703124330 61 89 0.0 1.0 0.00 0.00 0.00 94 1019.2
20220703123828 61 87 0.0 1.0 0.00 0.00 0.00 95 1019.3
20220703123328 60 89 0.0 1.0 0.00 0.00 0.00 95 1019.3
20220703122824 60 85 0.0 0.0 0.00 0.00 0.00 95 1019.3
20220703122321 60 85 0.0 0.0 0.00 0.00 0.00 96 1019.5
20220703121823 60 86 0.0 1.0 0.00 0.00 0.00 96 1019.5
20220703121322 59 72 0.0 1.0 0.00 0.00 0.00 96 1019.4
20220703120820 59 102 0.0 1.0 0.00 0.00 0.00 96 1019.4
20220703120320 59 83 0.0 1.0 0.00 0.00 0.00 96 1019.4
20220703115822 59 83 0.0 1.0 0.00 0.00 0.00 96 1019.4
20220703115317 58 83 0.0 0.0 0.00 0.00 0.00 96 1019.4
20220703114820 58 83 0.0 1.0 0.00 0.00 0.00 96 1019.5
20220703114318 58 20 0.0 1.0 0.00 0.00 0.00 96 1019.5
20220703113817 57 356 0.0 0.0 0.00 0.00 0.00 96 1019.6
20220703113317 57 356 0.0 0.0 0.00 0.00 0.00 96 1019.5
20220703112818 57 356 0.0 0.0 0.00 0.00 0.00 96 1019.3
20220703112310 56 351 0.0 0.0 0.00 0.00 0.00 96 1019.3
20220703111804 56 351 0.0 0.0 0.00 0.00 0.00 96 1019.3
20220703111259 56 351 0.0 0.0 0.00 0.00 0.00 96 1019.2
20220703110752 56 351 0.0 0.0 0.00 0.00 0.00 97 1019.3
20220703110246 55 351 0.0 0.0 0.00 0.00 0.00 96 1019.3
20220703105740 55 351 0.0 0.0 0.00 0.00 0.00 96 1019.2
20220703105235 54 351 0.0 0.0 0.00 0.00 0.00 96 1019.1
20220703104728 54 351 0.0 0.0 0.00 0.00 0.00 96 1019.1
20220703104222 54 351 0.0 0.0 0.00 0.00 0.00 96 1019.0
20220703103716 54 351 0.0 0.0 0.00 0.00 0.00 96 1019.0
20220703103210 54 351 0.0 0.0 0.00 0.00 0.00 96 1019.0
20220703102704 54 351 0.0 0.0 0.00 0.00 0.00 96 1019.0
20220703102158 54 351 0.0 0.0 0.00 0.00 0.00 96 1018.8
20220703101652 54 351 0.0 0.0 0.00 0.00 0.00 96 1018.7
20220703101147 54 351 0.0 0.0 0.00 0.00 0.00 96 1018.7
20220703100641 54 351 0.0 0.0 0.00 0.00 0.00 96 1018.8
20220703100134 54 351 0.0 0.0 0.00 0.00 0.00 96 1018.7
20220703095628 54 351 0.0 0.0 0.00 0.00 0.00 95 1019.0
20220703095122 54 351 0.0 0.0 0.00 0.00 0.00 95 1018.8
20220703094617 54 351 0.0 0.0 0.00 0.00 0.00 95 1018.8
20220703094112 54 351 0.0 0.0 0.00 0.00 0.00 95 1019.1
20220703093604 54 351 0.0 0.0 0.00 0.00 0.00 95 1019.1
20220703093058 54 351 0.0 0.0 0.00 0.00 0.00 95 1019.0
20220703092556 54 351 0.0 0.0 0.00 0.00 0.00 95 1018.8
20220703092047 54 351 0.0 0.0 0.00 0.00 0.00 95 1019.0
20220703091540 54 351 0.0 0.0 0.00 0.00 0.00 95 1019.0
20220703091034 54 351 0.0 0.0 0.00 0.00 0.00 95 1019.0
20220703090529 54 351 0.0 0.0 0.00 0.00 0.00 95 1019.1
20220703090022 54 351 0.0 0.0 0.00 0.00 0.00 94 1019.2
20220703085515 54 351 0.0 0.0 0.00 0.00 0.00 94 1019.1
20220703085012 54 351 0.0 0.0 0.00 0.00 0.00 94 1019.0
20220703084507 55 351 0.0 0.0 0.00 0.00 0.00 94 1019.0
20220703083958 55 351 0.0 0.0 0.00 0.00 0.00 94 1018.8
20220703083453 55 351 0.0 0.0 0.00 0.00 0.00 94 1018.7
20220703082947 55 351 0.0 0.0 0.00 0.00 0.00 94 1018.7
20220703082440 55 351 0.0 0.0 0.00 0.00 0.00 94 1018.7
20220703081934 56 351 0.0 0.0 0.00 0.00 0.00 94 1018.7
20220703081429 56 351 0.0 0.0 0.00 0.00 0.00 94 1018.8
20220703080923 56 351 0.0 0.0 0.00 0.00 0.00 94 1018.8
20220703080416 57 351 0.0 0.0 0.00 0.00 0.00 94 1018.8
20220703075911 57 351 0.0 0.0 0.00 0.00 0.00 94 1018.8
20220703075405 58 351 0.0 0.0 0.00 0.00 0.00 93 1018.7
20220703074859 58 351 0.0 0.0 0.00 0.00 0.00 94 1018.7
20220703074405 59 351 0.0 0.0 0.00 0.00 0.00 94 1018.7
20220703073846 59 351 0.0 0.0 0.00 0.00 0.00 94 1018.6
20220703073340 60 351 0.0 1.0 0.00 0.00 0.00 95 1018.6
20220703072834 60 351 0.0 1.0 0.00 0.00 0.00 95 1018.6
20220703072328 60 350 0.0 1.0 0.00 0.00 0.00 95 1018.7
20220703071822 59 6 0.0 1.0 0.00 0.00 0.00 95 1018.6
20220703071316 59 4 0.0 1.0 0.00 0.00 0.00 95 1018.7
20220703070811 59 4 0.0 2.0 0.00 0.00 0.00 95 1018.6
20220703070305 59 346 0.0 2.0 0.00 0.00 0.00 95 1018.7
20220703065758 59 2 0.0 2.0 0.00 0.00 0.00 96 1018.6
20220703065251 59 1 0.0 2.0 0.00 0.00 0.00 96 1018.6
20220703064746 58 0 0.0 2.0 0.00 0.00 0.00 96 1018.7
20220703064253 57 349 0.0 2.0 0.00 0.00 0.00 96 1018.7
20220703063734 55 333 0.0 0.0 0.00 0.00 0.00 94 1018.8
20220703063229 55 314 0.0 0.0 0.00 0.00 0.00 94 1018.8
20220703062722 56 314 0.0 0.0 0.00 0.00 0.00 94 1018.7
20220703062220 55 314 0.0 0.0 0.00 0.00 0.00 94 1018.6
20220703061711 56 314 0.0 0.0 0.00 0.00 0.00 94 1018.7
20220703061205 56 314 0.0 0.0 0.00 0.00 0.00 94 1018.6
20220703060658 56 314 0.0 0.0 0.00 0.00 0.00 94 1018.6
20220703060152 55 314 0.0 0.0 0.00 0.00 0.00 93 1018.5
20220703055647 55 314 0.0 0.0 0.00 0.00 0.00 93 1018.5
20220703055140 55 314 0.0 0.0 0.00 0.00 0.00 93 1018.5
20220703054634 55 314 0.0 0.0 0.00 0.00 0.00 93 1018.5
20220703054128 55 314 0.0 0.0 0.00 0.00 0.00 93 1018.4
20220703053622 55 314 0.0 0.0 0.00 0.00 0.00 93 1018.3
20220703053116 55 314 0.0 0.0 0.00 0.00 0.00 92 1018.4
20220703052610 55 314 0.0 0.0 0.00 0.00 0.00 92 1018.4
20220703052104 55 314 0.0 0.0 0.00 0.00 0.00 92 1018.4
20220703051559 56 314 0.0 0.0 0.00 0.00 0.00 91 1018.4
20220703051052 56 314 0.0 0.0 0.00 0.00 0.00 91 1018.5
20220703050551 56 314 0.0 0.0 0.00 0.00 0.00 91 1018.4
20220703050054 56 314 0.0 0.0 0.00 0.00 0.00 91 1018.4
20220703045547 56 314 0.0 0.0 0.00 0.00 0.00 91 1018.2
20220703045049 57 314 0.0 0.0 0.00 0.00 0.00 91 1018.1
20220703044549 57 314 0.0 0.0 0.00 0.00 0.00 91 1018.1
20220703044047 57 314 0.0 0.0 0.00 0.00 0.00 91 1018.1
20220703043547 57 314 0.0 0.0 0.00 0.00 0.00 90 1018.0
20220703043049 57 314 0.0 0.0 0.00 0.00 0.00 90 1018.1
20220703042547 57 314 0.0 0.0 0.00 0.00 0.00 90 1018.0
20220703042045 57 314 0.0 0.0 0.00 0.00 0.00 90 1017.9
20220703041547 57 314 0.0 0.0 0.00 0.00 0.00 89 1017.9
20220703041046 57 314 0.0 0.0 0.00 0.00 0.00 89 1017.9
20220703040545 57 314 0.0 0.0 0.00 0.00 0.00 88 1018.0
20220703040042 57 314 0.0 0.0 0.00 0.00 0.00 88 1017.9
20220703035541 57 314 0.0 0.0 0.00 0.00 0.00 88 1017.9
20220703035042 58 314 0.0 0.0 0.00 0.00 0.00 87 1018.0
20220703034539 58 314 0.0 0.0 0.00 0.00 0.00 86 1017.9
20220703034038 58 314 0.0 0.0 0.00 0.00 0.00 86 1017.9